This is the latest recevied weather packets stored in our database for station/object IW3HBX-13. If no packets are shown the sender has not sent any weather packets the latest 10 day(s).
| Time | Temp. | Humidity | Pressure | Rain* | Wind** | Luminosity | Snow |
|---|---|---|---|---|---|---|---|
| 1777361767 | 18.89° C | 57% | 1016.7 hPa | 0 mm | - | 338 W/m² | - |
| 1777361407 | 18.89° C | 57% | 1016.7 hPa | 0 mm | - | 271 W/m² | - |
| 1777361047 | 18.89° C | 57% | 1016.8 hPa | 0 mm | - | 271 W/m² | - |
| 1777360687 | 18.89° C | 58% | 1016.7 hPa | 0 mm | - | 343 W/m² | - |
| 1777359967 | 18.33° C | 59% | 1016.7 hPa | 0 mm | - | 213 W/m² | - |
| 1777359248 | 18.33° C | 59% | 1016.6 hPa | 0 mm | - | 258 W/m² | - |
| 1777358887 | 18.33° C | 60% | 1016.7 hPa | 0 mm | - | 247 W/m² | - |
| 1777358170 | 17.78° C | 62% | 1016.5 hPa | 0 mm | - | 164 W/m² | - |
| 1777357807 | 17.78° C | 62% | 1016.5 hPa | 0 mm | - | 205 W/m² | - |
| 1777357448 | 17.78° C | 63% | 1016.4 hPa | 0 mm | - | 158 W/m² | - |
| 1777357087 | 18.33° C | 63% | 1016.5 hPa | 0 mm | - | 151 W/m² | - |
| 1777356727 | 17.78° C | 64% | 1016.5 hPa | 0 mm | - | 167 W/m² | - |
| 1777356370 | 17.22° C | 66% | 1016.6 hPa | 0 mm | - | 162 W/m² | - |
| 1777355648 | 16.11° C | 68% | 1016.4 hPa | 0 mm | - | 112 W/m² | - |
| 1777355289 | 16.11° C | 69% | 1016.5 hPa | 0 mm | - | 91 W/m² | - |
| 1777354930 | 16.11° C | 69% | 1016.5 hPa | 0 mm | - | 84 W/m² | - |
| 1777354568 | 16.11° C | 70% | 1016.5 hPa | 0 mm | - | 98 W/m² | - |
| 1777354210 | 15.56° C | 71% | 1016.5 hPa | 0 mm | - | 91 W/m² | - |
| 1777353850 | 15.56° C | 72% | 1016.3 hPa | 0 mm | - | 76 W/m² | - |
| 1777353489 | 15.56° C | 73% | 1016.3 hPa | 0 mm | - | 64 W/m² | - |
| 1777352770 | 15° C | 75% | 1016.2 hPa | 0 mm | - | 49 W/m² | - |
| 1777352047 | 15° C | 76% | 1016.2 hPa | 0 mm | - | 32 W/m² | - |
| 1777351687 | 14.44° C | 76% | 1016.2 hPa | 0 mm | - | 25 W/m² | - |
| 1777351329 | 14.44° C | 77% | 1016.1 hPa | 0 mm | - | 19 W/m² | - |
| 1777350967 | 14.44° C | 78% | 1016 hPa | 0 mm | - | 14 W/m² | - |
* Rain latest hour (hover to see other rain measurements)
** Current wind speed in m/s (hover to see current wind gust speed)